Veribest, TX

4:05 AM CST on February 06, 2016 (GMT -0600)
San Angelo Regional-Mathis

Weather History for KSJT - May, 2014

Change the Weather History Date:

Sunday, May 25, 2014

  Actual Average Record
Temperature  
Mean Temperature 67 °F 77 °F  
Max Temperature 72 °F 89 °F 107 °F (1989)
Min Temperature 61 °F 65 °F 51 °F (1947)
Degree Days  
Heating Degree Days 0 0  
Month to date heating degree days 28 8  
Since 1 July heating degree days 2497 2314  
Cooling Degree Days 2 12  
Month to date cooling degree days 281 229  
Year to date cooling degree days 534 385  
Growing Degree Days 16 (Base 50)    
Moisture  
Dew Point 61 °F    
Average Humidity 81    
Maximum Humidity 93    
Minimum Humidity 68    
Precipitation  
Precipitation 2.36 in 0.12 in 2.36 in (2014)
Month to date precipitation 5.88 2.16  
Year to date precipitation 6.40 7.36  
Sea Level Pressure  
Sea Level Pressure 29.98 in    
Wind  
Wind Speed 12 mph (East)    
Max Wind Speed 39 mph    
Max Gust Speed 47 mph    
Visibility 9 miles    
Events Rain , Thunderstorm    
T = Trace of Precipitation, MM = Missing Value Source: NWS Daily Summary

Daily Weather History Graph

Daily Weather History Graph

Search for Another Location

Airport or City:

Trip Planner

Search our weather history database for the weather conditions in past years. The results will help you decide how hot, cold, wet, or windy it might be!

Date:

Astronomy

May. 25, 2014 Rise Set
Actual Time 6:40 AM CDT 8:37 PM CDT
Civil Twilight 6:13 AM CDT 9:04 PM CDT
Nautical Twilight 5:40 AM CDT 9:37 PM CDT
Astronomical Twilight 5:05 AM CDT 10:13 PM CDT
Moon 4:33 AM CDT (5/25) 5:50 PM CDT (5/25)
Length of Visible Light 14h 51m
Length of Day
13h 57m
Waning Crescent, 10% of the Moon is Illuminated
May 25
Waning Crescent
May 28
New
Jun 5
First Quarter
Jun 12
Full
Jun 19
Last Quarter

Hourly Weather History & Observations

Time (CDT) Temp. Dew Point Humidity Pressure Visibility Wind Dir Wind Speed Gust Speed Precip Events Conditions
12:04 AM 63.0 °F 61.0 °F 93% 29.92 in 10.0 mi NE 20.7 mph - 0.03 in Rain , Thunderstorm Light Thunderstorms and Rain
12:13 AM 63.0 °F 61.0 °F 93% 29.93 in 10.0 mi SE 25.3 mph 35.7 mph 0.04 in Rain , Thunderstorm Light Thunderstorms and Rain
12:33 AM 62.1 °F 60.1 °F 93% 29.94 in 10.0 mi ESE 23.0 mph - 0.04 in Rain , Thunderstorm Light Rain
12:49 AM 60.8 °F 59.0 °F 94% 29.96 in 10.0 mi SE 15.0 mph 25.3 mph 0.04 in Rain , Thunderstorm Light Thunderstorms and Rain
12:51 AM 62.1 °F 59.0 °F 90% 29.92 in 10.0 mi SE 15.0 mph 25.3 mph 0.04 in Rain , Thunderstorm Light Thunderstorms and Rain
1:51 AM 63.0 °F 61.0 °F 93% 29.91 in 9.0 mi SE 16.1 mph - 0.27 in Rain , Thunderstorm Heavy Thunderstorms and Rain
2:51 AM 63.0 °F 61.0 °F 93% 29.88 in 10.0 mi SE 12.7 mph - 0.32 in Rain , Thunderstorm Light Thunderstorms and Rain
3:11 AM 63.0 °F 60.1 °F 90% 29.92 in 10.0 mi ESE 13.8 mph - 0.01 in Rain , Thunderstorm Light Rain
3:34 AM 62.1 °F 60.1 °F 93% 29.93 in 10.0 mi ESE 15.0 mph - 0.04 in Rain , Thunderstorm Light Thunderstorms and Rain
3:51 AM 62.1 °F 60.1 °F 93% 29.84 in 10.0 mi East 19.6 mph 28.8 mph 0.05 in Rain , Thunderstorm Light Thunderstorms and Rain
4:01 AM 62.1 °F 60.1 °F 93% 29.90 in 10.0 mi East 26.5 mph 34.5 mph 0.00 in Rain , Thunderstorm Light Rain
4:17 AM 62.1 °F 60.1 °F 93% 29.94 in 10.0 mi SE 19.6 mph 34.5 mph 0.00 in Rain , Thunderstorm Light Thunderstorms and Rain
4:32 AM 63.0 °F 60.1 °F 90% 29.90 in 10.0 mi ESE 27.6 mph 36.8 mph 0.00 in Rain Light Rain
4:51 AM 63.0 °F 60.1 °F 90% 29.82 in 10.0 mi ESE 26.5 mph 47.2 mph 0.00 in Rain Light Rain
5:41 AM 63.0 °F 60.1 °F 90% 29.97 in 10.0 mi SSW 6.9 mph 20.7 mph 0.00 in   Partly Cloudy
5:51 AM 64.0 °F 59.0 °F 84% 29.91 in 10.0 mi SE 8.1 mph - 0.00 in   Partly Cloudy
6:51 AM 64.0 °F 60.1 °F 87% 29.93 in 10.0 mi ESE 4.6 mph - N/A   Overcast
7:51 AM 63.0 °F 61.0 °F 93% 29.96 in 10.0 mi ESE 4.6 mph - 0.00 in Rain Light Rain
8:47 AM 64.4 °F 60.8 °F 88% 30.04 in 10.0 mi WNW 11.5 mph - 0.01 in Rain , Thunderstorm Light Rain
8:51 AM 64.0 °F 62.1 °F 93% 30.01 in 10.0 mi West 11.5 mph - 0.01 in Rain , Thunderstorm Light Rain
8:55 AM 64.0 °F 62.1 °F 93% 30.05 in 10.0 mi WNW 9.2 mph - 0.00 in Rain , Thunderstorm Light Rain
9:18 AM 64.0 °F 61.0 °F 90% 30.06 in 10.0 mi WNW 5.8 mph - 0.00 in Rain , Thunderstorm Light Rain
9:59 AM 64.0 °F 61.0 °F 90% 30.04 in 10.0 mi ENE 10.4 mph - 0.00 in   Overcast
10:13 AM 64.0 °F 61.0 °F 90% 30.02 in 10.0 mi East 12.7 mph - 0.00 in Rain , Thunderstorm Light Rain
10:44 AM 63.0 °F 61.0 °F 93% 30.02 in 10.0 mi ENE 16.1 mph - 0.09 in Rain Light Rain
10:51 AM 63.0 °F 61.0 °F 93% 30.00 in 10.0 mi ENE 15.0 mph - 0.09 in Rain , Thunderstorm Light Rain
11:19 AM 63.0 °F 61.0 °F 93% 30.07 in 10.0 mi North 13.8 mph - 0.04 in Rain , Thunderstorm Light Thunderstorms and Rain
11:42 AM 63.0 °F 62.1 °F 97% 30.08 in 4.0 mi NNW 9.2 mph - 0.37 in Rain , Thunderstorm Heavy Thunderstorms and Rain
11:51 AM 62.1 °F 61.0 °F 96% 30.06 in 3.0 mi North 15.0 mph - 0.53 in Rain , Thunderstorm Heavy Thunderstorms and Rain
11:54 AM 62.1 °F 61.0 °F 96% 30.08 in 2.5 mi North 17.3 mph - 0.11 in Rain , Thunderstorm Heavy Rain
12:02 PM 62.1 °F 62.1 °F 100% 30.05 in 4.0 mi North 20.7 mph - 0.29 in Rain , Thunderstorm Heavy Rain
12:15 PM 63.0 °F 61.0 °F 93% 30.07 in 7.0 mi NNW 19.6 mph - 0.39 in Rain , Thunderstorm Heavy Rain
12:23 PM 63.0 °F 61.0 °F 93% 30.12 in 7.0 mi WNW 16.1 mph - 0.45 in Rain , Thunderstorm Heavy Thunderstorms and Rain
12:27 PM 62.1 °F 61.0 °F 96% 30.13 in 5.0 mi NW 17.3 mph - 0.50 in Rain , Thunderstorm Heavy Thunderstorms and Rain
12:43 PM 62.1 °F 61.0 °F 96% 30.09 in 4.0 mi NNE 17.3 mph - 0.90 in Rain , Thunderstorm Heavy Thunderstorms and Rain
12:51 PM 62.1 °F 60.1 °F 93% 30.04 in 6.0 mi NE 18.4 mph - 1.00 in Rain , Thunderstorm Heavy Thunderstorms and Rain
1:13 PM 62.1 °F 60.1 °F 93% 30.07 in 10.0 mi NNE 15.0 mph - 0.04 in Rain , Thunderstorm Light Rain
1:51 PM 64.0 °F 61.0 °F 90% 30.01 in 10.0 mi ENE 13.8 mph - 0.05 in Rain Light Rain
2:51 PM 64.0 °F 62.1 °F 93% 29.99 in 10.0 mi East 11.5 mph - 0.00 in Rain Light Rain
3:38 PM 64.9 °F 62.1 °F 90% 30.04 in 10.0 mi ENE 4.6 mph - 0.03 in Rain , Thunderstorm Light Rain
3:51 PM 66.0 °F 62.1 °F 87% 29.96 in 10.0 mi East 15.0 mph - 0.03 in Thunderstorm Mostly Cloudy
4:51 PM 70.0 °F 61.0 °F 73% 29.93 in 10.0 mi East 13.8 mph - N/A   Overcast
5:51 PM 72.0 °F 60.1 °F 66% 29.92 in 10.0 mi East 12.7 mph - N/A   Scattered Clouds
6:51 PM 70.0 °F 60.1 °F 71% 29.92 in 10.0 mi ESE 13.8 mph - N/A   Overcast
7:51 PM 68.0 °F 59.0 °F 73% 29.91 in 10.0 mi ESE 13.8 mph - N/A   Mostly Cloudy
8:51 PM 66.9 °F 60.1 °F 79% 29.95 in 10.0 mi ESE 6.9 mph - N/A   Overcast
9:51 PM 66.0 °F 62.1 °F 87% 29.95 in 10.0 mi ESE 6.9 mph - N/A   Partly Cloudy
10:51 PM 66.0 °F 63.0 °F 90% 29.96 in 10.0 mi ESE 4.6 mph - N/A   Mostly Cloudy
11:51 PM 66.0 °F 62.1 °F 87% 29.96 in 10.0 mi East 10.4 mph - N/A   Mostly Cloudy